Precipitable_Water
0.37 0.35 0.33 0.35 0.36 0.34 0.33 0.30 0.27 0.28 0.27 0.22 0.21 0.21 0.24 0.24 0.29 0.29 0.33 0.37 0.40 0.41 0.45 0.46 0.45 0.44 0.41 0.41 0.40 0.40 0.38 0.38 0.38 0.39 0.41 0.47 0.59 0.81 0.99 1.08 1.22 1.18 1.47 1.61
0.29 0.28 0.31 0.32 0.31 0.29 0.28 0.28 0.30 0.30 0.30 0.26 0.24 0.23 0.21 0.20 0.27 0.31 0.33 0.35 0.37 0.38 0.39 0.40 0.40 0.41 0.40 0.40 0.40 0.41 0.41 0.41 0.40 0.40 0.40 0.44 0.48 0.57 0.78 0.97 1.00 1.12 1.48 1.56
0.27 0.29 0.27 0.26 0.26 0.25 0.24 0.24 0.24 0.24 0.26 0.25 0.22 0.18 0.17 0.21 0.29 0.35 0.39 0.40 0.39 0.38 0.37 0.37 0.38 0.39 0.41 0.40 0.40 0.39 0.40 0.42 0.43 0.42 0.42 0.40 0.43 0.46 0.48 0.62 0.76 0.91 1.07 1.24
0.26 0.30 0.25 0.24 0.25 0.25 0.22 0.26 0.26 0.24 0.20 0.17 0.18 0.13 0.16 0.24 0.28 0.31 0.35 0.36 0.36 0.36 0.37 0.37 0.36 0.35 0.36 0.37 0.38 0.38 0.39 0.40 0.42 0.43 0.41 0.40 0.37 0.35 0.42 0.47 0.60 0.75 0.89 0.99
0.26 0.25 0.24 0.22 0.24 0.25 0.21 0.23 0.21 0.21 0.18 0.15 0.15 0.13 0.14 0.25 0.25 0.29 0.33 0.34 0.35 0.36 0.37 0.36 0.35 0.35 0.36 0.36 0.35 0.35 0.36 0.36 0.39 0.41 0.41 0.40 0.39 0.41 0.45 0.49 0.49 0.54 0.72 0.89
0.29 0.29 0.25 0.24 0.25 0.24 0.22 0.19 0.18 0.15 0.14 0.12 0.16 0.15 0.16 0.22 0.25 0.29 0.34 0.37 0.39 0.38 0.36 0.36 0.37 0.37 0.36 0.36 0.35 0.33 0.32 0.33 0.37 0.38 0.40 0.39 0.41 0.42 0.41 0.46 0.48 0.50 0.54 0.67
0.27 0.26 0.26 0.25 0.22 0.24 0.21 0.18 0.13 0.14 0.13 0.12 0.16 0.16 0.23 0.33 0.37 0.36 0.35 0.39 0.39 0.38 0.39 0.39 0.37 0.35 0.35 0.34 0.34 0.32 0.31 0.31 0.35 0.38 0.40 0.42 0.42 0.44 0.44 0.46 0.50 0.52 0.53 0.55
0.23 0.20 0.25 0.25 0.24 0.20 0.20 0.20 0.17 0.13 0.13 0.14 0.17 0.15 0.25 0.37 0.41 0.42 0.42 0.41 0.41 0.40 0.39 0.38 0.38 0.37 0.35 0.34 0.33 0.32 0.31 0.31 0.34 0.38 0.40 0.44 0.45 0.46 0.49 0.49 0.52 0.57 0.61 0.63
0.20 0.20 0.25 0.24 0.23 0.21 0.20 0.19 0.22 0.18 0.18 0.14 0.15 0.25 0.35 0.38 0.36 0.37 0.37 0.39 0.38 0.38 0.37 0.37 0.38 0.37 0.35 0.33 0.32 0.32 0.31 0.32 0.35 0.38 0.41 0.44 0.46 0.48 0.49 0.53 0.56 0.58 0.66 0.69
0.24 0.19 0.22 0.23 0.23 0.23 0.21 0.23 0.19 0.20 0.13 0.12 0.14 0.19 0.22 0.30 0.33 0.36 0.37 0.38 0.38 0.39 0.38 0.38 0.35 0.34 0.33 0.33 0.33 0.33 0.33 0.33 0.35 0.39 0.43 0.47 0.49 0.52 0.52 0.54 0.56 0.61 0.65 0.71
0.24 0.23 0.23 0.23 0.21 0.21 0.22 0.20 0.19 0.18 0.17 0.14 0.12 0.19 0.35 0.35 0.37 0.36 0.38 0.39 0.39 0.38 0.36 0.34 0.33 0.33 0.33 0.33 0.33 0.33 0.33 0.33 0.36 0.39 0.46 0.50 0.52 0.54 0.54 0.56 0.58 0.62 0.68 0.73
0.25 0.23 0.21 0.23 0.26 0.25 0.22 0.21 0.21 0.16 0.14 0.18 0.17 0.17 0.37 0.35 0.36 0.36 0.37 0.37 0.36 0.34 0.31 0.30 0.31 0.32 0.32 0.32 0.33 0.34 0.34 0.34 0.38 0.42 0.48 0.52 0.53 0.55 0.54 0.56 0.60 0.64 0.67 0.73
0.25 0.22 0.20 0.22 0.23 0.24 0.20 0.20 0.20 0.24 0.23 0.18 0.16 0.19 0.36 0.34 0.34 0.37 0.37 0.34 0.32 0.30 0.29 0.29 0.30 0.30 0.31 0.33 0.33 0.35 0.34 0.35 0.39 0.43 0.47 0.50 0.54 0.55 0.55 0.58 0.61 0.64 0.67 0.71
0.28 0.24 0.21 0.17 0.19 0.21 0.20 0.21 0.23 0.22 0.18 0.19 0.19 0.18 0.25 0.32 0.34 0.35 0.31 0.30 0.31 0.27 0.28 0.29 0.29 0.30 0.31 0.32 0.32 0.32 0.33 0.37 0.41 0.42 0.44 0.47 0.53 0.54 0.56 0.57 0.60 0.62 0.65 0.68
0.28 0.21 0.21 0.21 0.21 0.21 0.19 0.21 0.24 0.20 0.22 0.19 0.19 0.20 0.26 0.30 0.31 0.30 0.33 0.32 0.26 0.26 0.27 0.28 0.28 0.29 0.30 0.31 0.31 0.31 0.32 0.37 0.39 0.40 0.39 0.43 0.49 0.54 0.55 0.56 0.58 0.60 0.63 0.65
0.30 0.23 0.22 0.17 0.20 0.20 0.17 0.18 0.20 0.21 0.21 0.20 0.21 0.21 0.30 0.32 0.31 0.30 0.29 0.25 0.25 0.26 0.27 0.28 0.29 0.30 0.30 0.30 0.30 0.30 0.31 0.36 0.36 0.36 0.36 0.41 0.46 0.48 0.53 0.56 0.56 0.57 0.60 0.63
0.27 0.23 0.22 0.19 0.22 0.19 0.16 0.18 0.17 0.16 0.17 0.17 0.16 0.22 0.28 0.26 0.26 0.26 0.25 0.26 0.27 0.28 0.29 0.29 0.29 0.29 0.29 0.29 0.29 0.29 0.30 0.35 0.33 0.32 0.33 0.36 0.40 0.43 0.46 0.50 0.53 0.56 0.56 0.59
0.26 0.23 0.24 0.21 0.21 0.14 0.18 0.21 0.20 0.19 0.22 0.24 0.24 0.25 0.26 0.24 0.25 0.28 0.28 0.29 0.31 0.30 0.30 0.30 0.29 0.28 0.27 0.28 0.28 0.29 0.29 0.31 0.31 0.29 0.30 0.32 0.34 0.37 0.42 0.43 0.45 0.47 0.51 0.55
0.31 0.27 0.22 0.18 0.16 0.19 0.21 0.23 0.23 0.21 0.21 0.28 0.25 0.26 0.25 0.25 0.28 0.29 0.33 0.34 0.34 0.30 0.31 0.30 0.29 0.27 0.26 0.26 0.26 0.26 0.26 0.27 0.28 0.26 0.28 0.29 0.31 0.31 0.35 0.36 0.40 0.41 0.41 0.43
0.31 0.30 0.24 0.21 0.15 0.12 0.21 0.27 0.28 0.28 0.19 0.28 0.25 0.23 0.25 0.28 0.20 0.26 0.34 0.35 0.30 0.31 0.32 0.30 0.28 0.27 0.24 0.24 0.25 0.24 0.24 0.25 0.24 0.25 0.26 0.28 0.30 0.29 0.30 0.32 0.35 0.38 0.39 0.37
0.26 0.25 0.21 0.21 0.19 0.21 0.28 0.29 0.31 0.19 0.19 0.30 0.29 0.29 0.29 0.26 0.29 0.34 0.34 0.32 0.32 0.31 0.31 0.31 0.27 0.25 0.24 0.24 0.24 0.22 0.23 0.23 0.24 0.25 0.27 0.28 0.30 0.28 0.30 0.30 0.31 0.33 0.33 0.33
0.20 0.20 0.20 0.21 0.18 0.15 0.30 0.28 0.21 0.27 0.33 0.32 0.29 0.27 0.26 0.30 0.33 0.33 0.33 0.31 0.30 0.29 0.29 0.29 0.26 0.24 0.24 0.23 0.22 0.22 0.22 0.24 0.23 0.24 0.25 0.27 0.29 0.29 0.29 0.28 0.29 0.29 0.29 0.27
0.21 0.23 0.21 0.19 0.17 0.31 0.35 0.32 0.37 0.37 0.29 0.29 0.26 0.29 0.31 0.31 0.31 0.32 0.30 0.29 0.30 0.29 0.28 0.28 0.26 0.24 0.23 0.23 0.23 0.22 0.23 0.23 0.22 0.23 0.23 0.25 0.27 0.28 0.28 0.27 0.26 0.26 0.27 0.25
0.29 0.30 0.21 0.24 0.31 0.33 0.36 0.40 0.39 0.37 0.30 0.30 0.31 0.31 0.31 0.30 0.31 0.30 0.30 0.30 0.29 0.28 0.26 0.25 0.24 0.23 0.23 0.23 0.23 0.23 0.24 0.23 0.22 0.21 0.22 0.24 0.25 0.25 0.27 0.28 0.27 0.26 0.26 0.25
0.26 0.29 0.23 0.23 0.31 0.35 0.37 0.36 0.33 0.31 0.31 0.30 0.31 0.31 0.30 0.30 0.29 0.29 0.29 0.28 0.28 0.26 0.25 0.24 0.23 0.23 0.24 0.23 0.23 0.24 0.24 0.23 0.22 0.21 0.21 0.23 0.24 0.23 0.24 0.26 0.25 0.26 0.27 0.27
0.30 0.28 0.24 0.21 0.28 0.29 0.32 0.34 0.33 0.30 0.29 0.31 0.30 0.29 0.30 0.30 0.29 0.28 0.28 0.27 0.26 0.25 0.24 0.23 0.23 0.24 0.23 0.24 0.24 0.24 0.24 0.24 0.23 0.20 0.21 0.22 0.22 0.22 0.24 0.23 0.23 0.26 0.26 0.27
Wind_Speed
15 12 14 16 15 14 13 14 15 16 17 16 18 19 21 20 15 14 15 16 18 18 19 21 23 25 26 27 29 29 31 32 33 34 35 36 37 37 36 37 39 40 43 43
15 16 16 13 12 13 15 17 18 20 20 18 22 24 23 18 17 16 16 17 18 20 21 23 24 26 27 29 31 32 33 34 34 35 36 37 39 39 40 38 37 37 42 46
16 15 11 13 15 16 17 18 18 19 19 20 22 25 24 17 14 16 18 19 21 22 23 24 25 28 30 32 33 34 35 35 35 37 38 39 39 40 40 42 43 42 43 45
20 19 17 16 17 18 20 16 17 19 19 20 17 23 20 15 16 18 19 20 22 23 24 26 28 30 32 34 36 36 37 37 38 38 39 40 41 42 43 45 46 47 46 46
17 16 17 19 20 19 19 18 19 20 22 23 21 21 22 15 18 19 20 21 22 24 26 27 29 31 34 37 38 39 39 40 40 40 41 41 42 44 46 47 49 49 50 49
22 18 17 17 17 17 18 19 22 22 19 23 23 20 19 23 20 19 20 21 23 26 28 30 32 35 37 39 40 41 42 42 43 42 43 43 44 45 46 48 49 50 51 51
21 20 20 20 19 19 18 18 19 17 17 20 20 15 16 11 13 16 19 22 26 28 30 33 34 36 39 40 42 42 43 43 43 44 44 45 45 45 45 46 46 48 50 51
20 21 21 21 21 19 19 17 16 18 15 19 20 17 15 12 12 16 19 23 25 28 31 33 35 38 39 41 42 43 44 44 45 45 45 45 45 44 44 43 43 43 44 46
17 23 19 18 18 16 17 17 18 19 21 19 19 16 15 18 19 20 22 22 25 28 32 34 36 38 39 41 42 43 43 44 44 45 44 45 45 44 44 43 43 42 41 41
18 17 18 19 18 19 17 19 17 19 19 19 20 15 18 19 18 19 22 24 27 30 32 34 36 36 39 41 42 42 42 43 43 43 42 43 42 40 39 40 40 41 40 39
22 18 19 20 22 21 20 21 20 20 20 19 19 16 16 16 18 20 22 25 26 29 31 33 34 37 39 40 40 40 40 41 39 37 35 37 34 32 32 33 33 35 36 36
21 19 20 24 22 22 22 21 20 18 21 20 19 21 18 18 19 21 22 24 25 28 30 32 34 37 38 37 37 37 36 35 31 30 31 31 30 29 29 28 27 27 29 30
21 21 18 20 20 21 22 22 20 19 20 21 17 19 17 18 19 21 22 23 25 28 31 32 34 34 34 33 33 32 30 29 27 29 29 30 29 28 25 24 21 18 18 23
18 19 20 21 17 18 20 21 22 20 20 20 21 22 20 20 19 20 20 22 25 28 29 29 30 30 31 30 30 28 27 25 26 27 28 28 26 25 22 21 17 17 16 17
19 20 21 22 22 22 22 22 23 24 21 19 21 21 16 17 17 18 20 23 25 26 26 27 27 28 28 28 27 25 24 25 24 26 27 27 24 24 21 18 14 13 14 14
20 20 20 22 23 25 26 24 23 22 24 23 20 16 16 17 17 19 21 23 24 24 25 25 26 27 28 27 24 22 24 24 24 25 27 26 24 22 20 15 14 13 11 11
19 17 18 20 20 22 23 21 22 21 21 19 18 16 16 16 18 20 20 21 22 22 23 23 25 26 27 25 22 22 24 22 23 24 25 25 24 22 18 15 14 13 11 10
18 18 17 18 16 18 18 17 18 18 18 15 14 13 14 16 18 18 19 19 20 21 21 23 24 25 25 24 22 22 23 22 24 24 24 24 23 22 19 16 14 14 12 12
20 18 17 15 16 17 13 12 12 12 11 13 12 13 14 16 16 18 18 18 19 19 20 22 23 23 24 23 22 22 22 22 24 24 24 24 22 21 20 18 16 15 14 13
18 15 16 13 15 15 14 12 10 10 13 12 10 13 14 17 17 17 18 19 19 17 19 20 21 22 23 22 22 23 22 23 24 24 23 23 22 21 19 18 16 15 14 14
14 15 16 14 15 15 14 10 9 9 13 10 11 12 14 16 16 18 18 18 17 16 18 20 21 22 22 22 23 22 22 23 24 24 23 22 21 20 19 18 17 15 15 14
13 13 14 14 13 16 13 9 11 11 10 10 12 14 15 15 17 15 16 16 16 17 19 21 21 21 22 22 23 22 22 23 24 23 23 22 21 20 19 18 17 16 15 15
12 14 13 12 13 11 8 8 9 11 11 12 13 14 15 15 14 15 16 16 16 18 19 21 21 21 22 22 23 23 23 24 23 23 22 21 21 19 18 18 18 17 17 16
11 11 11 10 11 9 9 9 9 11 12 13 13 14 13 14 15 15 16 15 17 19 20 21 21 21 22 22 22 23 24 24 23 23 22 21 20 20 19 18 18 18 18 18
11 10 11 11 11 10 11 11 11 12 13 14 13 14 14 14 14 15 15 16 18 19 20 21 21 21 22 22 22 23 23 23 23 23 22 21 20 21 20 19 19 18 18 19
11 11 10 11 13 12 12 12 12 13 13 14 13 13 13 14 14 15 15 17 18 18 20 21 21 21 22 22 23 24 24 24 23 23 22 22 21 20 19 19 19 19 19 19
Wind_Direction
263 269 266 260 260 267 272 273 278 272 273 272 272 276 282 281 270 267 272 278 285 296 301 306 310 310 311 311 310 308 303 299 295 290 286 283 279 277 274 270 267 258 250 255
268 256 266 264 267 274 279 277 274 273 276 278 284 282 282 278 266 266 271 279 283 290 301 306 308 309 310 310 310 308 304 301 298 292 288 283 280 275 273 270 267 262 258 258
257 261 272 270 273 276 278 279 281 280 284 278 284 282 278 266 261 269 278 280 287 291 296 302 303 306 307 308 308 307 305 302 299 297 290 285 281 277 272 270 268 265 263 261
266 261 260 265 271 275 277 282 286 287 287 277 286 282 284 240 262 269 277 285 289 293 294 297 302 306 307 308 307 306 304 303 300 299 294 290 284 279 275 272 267 265 263 261
266 266 260 268 272 274 275 282 284 282 282 285 277 279 280 237 258 269 277 282 289 294 298 302 304 305 307 308 307 306 305 302 300 298 296 292 288 283 278 273 270 266 262 260
261 265 269 270 277 278 280 281 283 279 277 281 278 260 281 256 243 263 271 281 289 296 300 303 305 308 308 308 308 307 306 303 301 299 298 295 291 287 282 277 273 269 264 260
265 260 264 268 275 274 278 284 285 285 274 274 290 264 282 275 254 258 274 286 293 298 300 302 304 308 309 309 308 308 307 305 303 300 299 297 293 288 285 280 275 271 266 262
256 268 256 265 266 272 270 268 272 277 276 285 288 281 272 261 261 269 274 283 290 296 300 303 305 307 309 309 309 308 307 306 305 302 300 298 296 289 284 280 275 273 268 264
262 261 264 267 272 265 272 271 275 279 283 280 273 276 268 261 265 270 275 283 291 298 303 305 306 308 310 311 311 310 309 308 306 304 301 300 297 292 285 282 275 270 269 267
260 266 263 272 272 273 275 278 280 279 280 276 281 278 266 260 270 281 288 292 298 302 305 306 308 309 310 311 311 311 310 310 308 306 304 303 301 296 288 282 277 270 266 265
254 261 263 264 267 267 272 271 271 272 271 275 284 281 267 270 278 284 291 297 301 306 308 309 311 312 313 311 311 310 312 313 311 311 310 311 307 305 297 289 282 274 266 263
257 260 258 260 263 265 264 268 264 268 275 274 273 271 276 279 282 285 293 298 302 307 310 311 313 314 315 316 315 313 313 315 315 316 318 318 314 311 308 298 289 279 265 262
250 261 264 271 271 269 268 268 268 270 273 269 275 278 276 280 283 291 296 303 307 310 312 313 315 318 319 319 319 319 319 319 321 322 321 324 322 316 314 308 295 288 279 268
254 256 257 259 260 263 268 265 264 261 269 272 272 275 271 281 283 290 300 306 310 312 314 317 320 321 322 321 322 322 324 324 325 329 327 328 328 326 318 318 305 293 287 281
253 257 263 266 266 269 270 267 263 264 260 265 273 273 273 279 287 295 302 308 312 314 318 321 322 324 325 324 324 325 326 327 330 332 333 333 331 331 327 321 317 312 293 284
256 258 258 265 267 270 268 265 265 267 265 269 269 275 274 280 291 298 303 308 313 316 319 322 324 327 328 327 325 326 328 329 332 335 338 338 338 336 333 325 325 316 319 299
246 251 255 263 268 270 269 260 262 266 267 267 268 269 273 286 293 294 301 308 313 316 319 323 325 327 327 327 325 325 329 328 333 337 340 342 343 342 341 340 335 325 325 332
246 249 256 266 270 260 264 265 263 267 270 263 265 268 276 285 296 299 304 306 311 314 319 322 325 327 328 328 325 327 327 329 330 333 336 341 343 345 345 344 337 335 337 332
247 247 255 253 255 268 278 261 260 260 269 276 267 276 288 295 296 303 306 307 308 308 315 320 324 328 330 330 328 327 328 328 331 331 332 335 339 342 344 342 340 339 333 330
237 244 242 252 254 262 271 256 257 266 268 283 277 287 293 297 296 297 305 306 305 307 315 320 325 329 331 332 332 331 329 329 330 331 330 330 332 336 337 341 337 333 335 334
238 244 239 246 257 268 253 250 258 259 267 278 288 291 296 295 294 296 304 306 303 307 316 321 323 326 329 332 333 333 333 331 331 330 329 328 328 329 330 332 333 333 333 333
233 233 241 247 257 262 235 243 255 262 275 278 289 294 298 295 296 301 305 304 303 308 315 320 320 323 326 329 331 331 332 332 331 331 330 328 327 325 325 326 326 327 326 327
243 236 237 238 250 253 242 243 258 267 272 283 289 293 293 300 302 304 304 303 305 309 313 318 319 320 323 326 328 328 329 329 330 331 331 331 330 327 323 322 322 321 321 321
241 236 238 239 244 234 236 253 272 276 280 284 288 294 299 301 304 303 303 304 304 308 312 316 319 319 319 323 325 327 327 327 327 327 327 328 328 329 325 323 320 317 317 316
238 230 233 244 246 237 248 259 269 281 284 286 291 293 294 297 302 304 306 306 307 308 311 314 316 317 319 320 322 324 326 325 324 324 323 325 325 327 326 325 323 319 316 314
233 232 236 248 243 251 255 261 270 277 281 286 291 294 298 299 300 304 305 308 309 311 313 314 315 315 318 319 318 321 322 322 322 321 319 319 320 321 322 323 322 323 322 319